Location: Newark
(48.8519°N, 2.3472°E)
Time: 00:59:31
(UTC+00:00)

OTV 5 (USA 277) - Visible Passes

Search period start: 20 August 2019 00:00
Search period end: 30 August 2019 00:00
Orbit: 305 x 329 km, 54.5° (Epoch: 11 August)

Date Brightness Start Highest point End Pass type
(mag) Time Alt. Az. Time Alt. Az. Time Alt. Az.
20 Aug ? 02:11:01 27° NNE 02:11:01 27° NNE 02:13:19 10° ENE visible
20 Aug ? 03:42:52 10° WNW 03:45:30 74° SSW 03:48:09 10° SE visible
21 Aug ? 02:25:53 38° NNE 02:25:53 38° NNE 02:28:14 10° E visible
21 Aug ? 03:57:35 10° WNW 03:59:58 31° SW 04:02:23 10° SSE visible
22 Aug ? 02:41:20 33° ESE 02:41:20 33° ESE 02:42:59 10° ESE visible
22 Aug ? 04:12:50 10° W 04:14:19 14° SW 04:15:49 10° S visible
24 Aug ? 19:30:26 10° SSE 19:31:50 13° SE 19:33:07 10° ESE visible
24 Aug ? 21:03:09 10° WSW 21:04:05 19° WSW 21:04:05 19° WSW visible
25 Aug ? 19:43:48 10° SSW 19:46:10 29° SE 19:48:17 12° E visible
25 Aug ? 21:17:53 10° W 21:19:13 24° WNW 21:19:13 24° WNW visible
26 Aug ? 19:58:00 10° SW 20:00:38 70° SSE 20:02:58 12° ENE visible
26 Aug ? 21:32:47 10° WNW 21:33:52 19° WNW 21:33:52 19° WNW visible
27 Aug ? 20:12:36 10° WSW 20:15:13 55° NNW 20:17:19 14° NE visible
27 Aug ? 21:47:41 10° WNW 21:48:13 13° NW 21:48:13 13° NW visible
28 Aug ? 20:27:26 10° W 20:29:53 32° NNW 20:31:29 17° NE visible
29 Aug ? 20:42:21 10° WNW 20:44:38 25° N 20:45:31 20° NNE visible
